sat.trackr.live / text

‹ back to catalog

STARLINK-1191

NORAD 45222 · 2020-012AW

PAYLOAD ACTIVE UNKNOWN

§ Identity

Operator
Country
US
Launch date
2020-02-17
Launch site
AFETR
Launch vehicle
Mass (kg)
RCS (m²)

Purposes: comms

External: N2YO · Heavens-Above · Gunter

§ Orbital elements

Epoch: 2026-09-20T03:40:47.560800Z

Period
92.72 min
Inclination
53.1489°
Eccentricity
0.0001764
Mean motion
15.53038081 rev/d
Perigee alt
406.7 km
Apogee alt
409.1 km
Semi-major
6,786.0 km
B*
7.1523e-4
RAAN
161.6923°
Arg perigee
162.9621°
Mean anomaly
197.1449°
Rev number
36,548

§ Raw data

STARLINK-11911 45222U 20012AW  26263.15332825  .00045234  00000+0  71523-3 0  99962 45222  53.1489 161.6923 0001764 162.9621 197.1449 15.53038081365485

JSON: /api/v1/satellites/45222 · /tle

For live sub-satellite position, see the globe view (requires WebGL).

§ Visibility from observer

Set your observer location to see the next 7 days of passes ≥ 10°. The values pass through the URL so the page stays shareable.

No JS? Fill the form by hand. The geolocation button needs JavaScript.